[[{"header":{"parameterUnit":"m.s-1","parameterCategory":1,"la1":30.2991,"la2":30.254,"lo1":-89.0895,"lo2":-89.0444,"dy":0.0017,"dx":0.0017,"nx":28,"ny":28,"refTime":"2024-04-16T03:00:00:Z","depth":0,"parameterNumber":2,"parameterNumberName":"U-component_of_WINDS"},"data":[0,0,0,0,0,0,0,0,0,0,0,0,0,0,0,0,0,0,0,0,0,0,0,0,0,0,0,0,0,0,0,0,0,0,0,0,0,0,0,0,0,0,0,0,0,0,0,0,0,0,0,0,0,0,0,0,0,0,-5.561,-5.561,0,-5.5641,-5.5641,-5.5642,-5.5576,-5.5574,-5.5572,-5.557,-5.56,-5.5603,-5.5606,0,0,0,0,0,0,0,0,0,0,0,0,0,-5.5495,-5.5497,-5.561,-5.561,-5.5611,-5.5641,-5.5641,-5.5642,-5.5576,-5.5574,-5.5571,-5.5569,-5.5599,-5.5603,-5.5606,0,0,0,0,0,0,0,0,0,0,0,0,0,-5.5537,-5.5498,-5.561,-5.5582,-5.5579,-5.5641,-5.5641,-5.5642,-5.5577,-5.5573,-5.557,-5.5567,-5.5598,-5.5602,-5.5606,-5.5696,0,0,-5.5619,-5.5621,0,0,0,0,0,0,0,0,-5.5535,-5.5541,-5.5585,-5.5584,-5.5581,-5.5601,-5.5612,-5.566,-5.5578,-5.5578,-5.5569,-5.5566,-5.5603,-5.5607,-5.5619,-5.5698,-5.5699,-5.562,-5.5622,-5.5624,-5.5625,0,0,0,0,0,0,0,-5.5532,-5.554,-5.5622,-5.5586,-5.5584,-5.5568,-5.557,-5.5621,-5.5608,-5.5577,-5.5573,-5.5577,-5.5601,-5.5616,-5.562,-5.5699,-5.5619,-5.5623,-5.5626,-5.5627,-5.5854,-5.5857,0,0,0,0,0,0,-5.5532,-5.5538,-5.5621,-5.5623,-5.555,-5.5572,-5.5575,-5.5598,-5.5607,-5.5605,-5.558,-5.5574,-5.561,-5.5615,-5.562,-5.5726,-5.5624,-5.5628,-5.563,-5.585,-5.5854,-5.5858,0,0,0,0,0,0,-5.553,-5.5541,-5.562,-5.5579,-5.5588,-5.5578,-5.5604,-5.56,-5.5614,-5.5609,-5.5606,-5.5597,-5.5608,-5.5615,-5.5678,-5.5726,-5.563,-5.5634,-5.5846,-5.5851,-5.5856,-5.5937,0,0,0,0,0,0,-5.5527,-5.554,-5.5574,-5.558,-5.559,-5.5677,-5.5607,-5.5603,-5.5622,-5.5615,-5.5624,-5.5623,-5.5606,-5.5672,-5.5682,-5.573,-5.5637,-5.5842,-5.5848,-5.5855,-5.593,-5.5945,-5.5957,0,0,0,0,0,-5.5523,-5.5595,-5.5576,-5.5586,-5.5632,-5.568,-5.5685,-5.5665,-5.5626,-5.566,-5.5657,-5.5622,-5.572,-5.5679,-5.569,-5.574,-5.5838,-5.5846,-5.5854,-5.5924,-5.5942,-5.5957,0,0,0,0,0,0,-5.5593,-5.5595,-5.5574,-5.565,-5.5666,-5.5669,-5.571,-5.5684,-5.571,-5.5702,-5.5675,-5.5678,-5.5746,-5.575,-5.5705,-5.5828,-5.5773,-5.5783,-5.5822,-5.5839,-5.5852,-5.5849,-5.564,0,0,0,0,0,-5.5618,-5.5657,-5.5656,-5.5723,-5.5732,-5.5721,-5.574,-5.5723,-5.5738,-5.5744,-5.5745,-5.5761,-5.5795,-5.5817,-5.5848,-5.5932,-5.5933,-5.5971,-5.5985,-5.5996,-5.6004,-5.6049,-5.6066,-5.5884,-5.5884,-5.5884,0,0,-5.5668,-5.5674,-5.57,-5.5738,-5.5747,-5.5788,-5.5726,-5.5771,-5.5801,-5.575,-5.581,-5.5813,-5.5828,-5.5902,-5.5934,-5.5906,-5.6055,-5.6006,-5.6015,-5.6017,-5.6058,-5.6076,-5.6091,-5.5889,-5.5888,-5.5887,0,0,-5.5781,-5.579,-5.5846,-5.5858,-5.5874,-5.5866,-5.588,-5.5888,-5.5888,-5.5948,-5.5911,-5.5947,-5.6006,-5.6018,-5.6032,-5.6153,-5.6122,-5.6164,-5.6233,-5.6276,-5.6291,-5.6303,-5.6345,-5.636,-5.6173,-5.6173,-5.6173,0,-5.5841,-5.59,-5.5879,-5.5927,-5.5944,-5.5903,-5.596,-5.5972,-5.5998,-5.6011,-5.598,-5.6054,-5.6062,-5.6138,-5.6168,-5.6181,-5.6196,-5.6161,-5.629,-5.6303,-5.6314,-5.6354,-5.637,-5.6178,-5.6178,-5.6177,-5.6177,0,-5.5973,-5.6016,-5.606,-5.6086,-5.6109,-5.6162,-5.6148,-5.6174,-5.6157,-5.6152,-5.6214,-5.6222,-5.6254,-5.6272,-5.6254,-5.6346,-5.6328,-5.6295,-5.6238,-5.6337,-5.6373,-5.6388,-5.6185,-5.6183,-5.6182,-5.6181,0,0,-5.6127,-5.6143,-5.6159,-5.6171,-5.6187,-5.6219,-5.6271,-5.6303,-5.6326,-5.6346,-5.6388,-5.644,-5.641,-5.6426,-5.641,-5.6449,-5.6543,-5.641,-5.641,-5.6433,-5.6644,-5.6667,-5.6685,-5.6524,-5.6527,-5.6529,-5.6642,0,-5.6237,-5.6325,-5.6309,-5.6395,-5.6433,-5.6395,-5.644,-5.6455,-5.6453,-5.6486,-5.6484,-5.6521,-5.6478,-5.6488,-5.6525,-5.6523,-5.6584,-5.6515,-5.6561,-5.6563,-5.6556,-5.6704,-5.6729,-5.6835,-5.6656,-5.6659,-5.666,0,-5.6376,-5.6402,-5.6492,-5.6503,-5.6519,-5.656,-5.6588,-5.662,-5.6637,-5.6633,-5.6653,-5.663,-5.6682,-5.6627,-5.6698,-5.6651,-5.667,-5.6672,-5.6676,-5.6677,-5.6616,-5.6708,-5.6869,-5.6884,-5.6683,-5.6681,-5.668,0,-5.6478,-5.6536,-5.6597,-5.6609,-5.6623,-5.6653,-5.666,-5.6674,-5.6695,-5.6721,-5.6734,-5.6765,-5.6782,-5.6807,-5.6794,-5.6755,-5.6866,-5.6811,-5.6864,-5.6864,-5.6886,-5.6884,-5.705,-5.6902,-5.6902,-5.6902,-5.6901,0,-5.6601,-5.6657,-5.6643,-5.668,-5.6742,-5.6724,-5.6786,-5.6789,-5.6802,-5.684,-5.681,-5.6846,-5.6827,-5.6862,-5.6852,-5.6912,-5.692,-5.6918,-5.6914,-5.6919,-5.6919,-5.6929,-5.692,-5.6906,-5.6905,-5.6904,-5.6903,0,-5.6723,-5.6716,-5.678,-5.679,-5.6794,-5.6839,-5.6847,-5.6883,-5.688,-5.6928,-5.6938,-5.6933,-5.6973,-5.6963,-5.7006,-5.7,-5.7074,-5.7062,-5.7069,-5.7065,-5.7118,-5.7112,-5.7293,-5.7316,-5.7156,-5.7157,-5.7158,0,-5.6801,-5.6844,-5.6859,-5.6882,-5.6892,-5.693,-5.6951,-5.6936,-5.6959,-5.6983,-5.7015,-5.7053,-5.7081,-5.7146,-5.7146,-5.718,-5.7167,-5.7229,-5.7171,-5.7176,-5.7166,-5.7163,-5.7167,-5.7239,-5.7241,-5.7242,-5.7243,0,-5.694,-5.6935,-5.6967,-5.6999,-5.7025,-5.705,-5.7071,-5.7092,-5.7078,-5.7106,-5.7146,-5.7169,-5.7214,-5.7251,-5.7282,-5.7289,-5.7264,-5.7262,-5.7275,-5.728,-5.7281,-5.728,-5.7097,-5.7257,-5.7256,-5.7255,-5.7254,-5.7253,-5.7041,-5.7077,-5.7093,-5.7131,-5.7146,-5.7167,-5.72,-5.7203,-5.7236,-5.7271,-5.7261,-5.7307,-5.7324,-5.7363,-5.7375,-5.7411,-5.7387,-5.7408,-5.7412,-5.7417,-5.7423,-5.7278,-5.7417,-5.7416,-5.7416,-5.7415,-5.7415,0,-5.7176,-5.7186,-5.7221,-5.7252,-5.7281,-5.7257,-5.728,-5.7306,-5.7347,-5.7366,-5.7395,-5.7442,-5.7478,-5.7483,-5.7517,-5.7545,-5.7535,-5.7555,-5.7551,-5.7553,-5.7442,-5.7426,-5.7563,-5.7563,-5.7563,-5.7563,-5.7563,-5.7563,-5.725,-5.731,-5.7307,-5.7375,-5.7383,-5.7429,-5.7444,-5.7463,-5.7478,-5.7532,-5.7562,-5.7565,-5.7578,-5.7614,-5.7647,-5.7647,-5.766,-5.7685,-5.7681,-5.7576,-5.7561,-5.7547,-5.7532,-5.7688,-5.7688,-5.7788,-5.7789,-5.779]},{"header":{"parameterUnit":"m.s-1","parameterCategory":1,"la1":30.2991,"la2":30.254,"lo1":-89.0895,"lo2":-89.0444,"dy":0.0017,"dx":0.0017,"nx":28,"ny":28,"refTime":"2024-04-16T03:00:00:Z","depth":0,"parameterNumber":3,"parameterNumberName":"V-component_of_WINDS"},"data":[0,0,0,0,0,0,0,0,0,0,0,0,0,0,0,0,0,0,0,0,0,0,0,0,0,0,0,0,0,0,0,0,0,0,0,0,0,0,0,0,0,0,0,0,0,0,0,0,0,0,0,0,0,0,0,0,0,0,4.2398,4.2398,0,4.2443,4.2443,4.2444,4.2441,4.244,4.244,4.2439,4.2483,4.2484,4.2486,0,0,0,0,0,0,0,0,0,0,0,0,0,4.231,4.2311,4.2398,4.2398,4.2399,4.2443,4.2443,4.2444,4.2441,4.244,4.244,4.2439,4.2482,4.2484,4.2486,0,0,0,0,0,0,0,0,0,0,0,0,0,4.235,4.2312,4.2397,4.2403,4.2404,4.2443,4.2443,4.2444,4.2441,4.244,4.2439,4.2439,4.2481,4.2484,4.2487,4.2523,0,0,4.2495,4.2496,0,0,0,0,0,0,0,0,4.2348,4.2354,4.2401,4.2402,4.2404,4.2435,4.2428,4.247,4.2442,4.2427,4.2439,4.2438,4.2468,4.2471,4.2482,4.2525,4.2526,4.2495,4.2497,4.2498,4.2498,0,0,0,0,0,0,0,4.2345,4.2352,4.2415,4.2402,4.2403,4.2403,4.2408,4.2436,4.2452,4.2428,4.2428,4.2434,4.2468,4.2479,4.2483,4.2527,4.2495,4.2497,4.2499,4.25,4.2606,4.2607,0,0,0,0,0,0,4.2341,4.2349,4.2414,4.2417,4.2373,4.2405,4.2411,4.2426,4.2452,4.2455,4.2434,4.2433,4.2475,4.248,4.2484,4.2531,4.2498,4.25,4.2502,4.2605,4.2606,4.2608,0,0,0,0,0,0,4.234,4.2347,4.2412,4.2383,4.2391,4.2408,4.2425,4.2428,4.2439,4.2457,4.2459,4.2443,4.2475,4.2481,4.2514,4.2532,4.2501,4.2504,4.2604,4.2605,4.2607,4.2623,0,0,0,0,0,0,4.2337,4.2347,4.236,4.2384,4.2393,4.2441,4.2426,4.2429,4.2444,4.2443,4.2465,4.2468,4.2474,4.251,4.2517,4.2536,4.2506,4.2602,4.2604,4.2607,4.2621,4.2625,4.2629,0,0,0,0,0,4.2334,4.2361,4.236,4.2368,4.241,4.2442,4.2448,4.2455,4.2445,4.2459,4.2472,4.2467,4.2529,4.2514,4.2521,4.2541,4.2601,4.2604,4.2606,4.2619,4.2624,4.2629,0,0,0,0,0,0,4.2337,4.2364,4.2364,4.2399,4.2419,4.2442,4.2459,4.2459,4.2481,4.2479,4.2487,4.2492,4.2526,4.2537,4.2519,4.2579,4.2564,4.2568,4.2571,4.2576,4.258,4.2577,4.2508,0,0,0,0,0,4.2342,4.2366,4.2388,4.2417,4.2427,4.2442,4.2456,4.2461,4.2481,4.2488,4.2503,4.2522,4.2546,4.2561,4.2584,4.2623,4.2629,4.264,4.2644,4.2647,4.2651,4.2676,4.2682,4.2617,4.2617,4.2617,0,0,4.2352,4.237,4.2384,4.2419,4.2434,4.246,4.2449,4.2475,4.2494,4.2492,4.2526,4.2537,4.2559,4.2597,4.2614,4.2606,4.2671,4.2651,4.2653,4.2655,4.2679,4.2685,4.2691,4.2619,4.2618,4.2618,0,0,4.2383,4.2398,4.2426,4.2444,4.2468,4.2479,4.2486,4.251,4.2518,4.2552,4.2552,4.2576,4.2616,4.2633,4.2647,4.2691,4.2689,4.2698,4.2718,4.2742,4.2748,4.2752,4.277,4.2776,4.2701,4.2702,4.2702,0,4.2392,4.2431,4.244,4.2469,4.2485,4.2487,4.2516,4.2532,4.2562,4.2574,4.2566,4.262,4.2634,4.2678,4.2689,4.2699,4.2709,4.2695,4.2746,4.2751,4.2755,4.2773,4.2779,4.2703,4.2702,4.2702,4.2702,0,4.2443,4.247,4.2489,4.2522,4.254,4.2569,4.2583,4.2601,4.2605,4.2617,4.2654,4.2672,4.2701,4.2711,4.2714,4.2756,4.2751,4.2744,4.2729,4.2762,4.2779,4.2786,4.2704,4.2704,4.2703,4.2703,0,0,4.2474,4.2515,4.2522,4.2539,4.2569,4.259,4.262,4.265,4.2666,4.2688,4.2715,4.2751,4.2747,4.2763,4.2768,4.2789,4.2826,4.278,4.2781,4.279,4.2877,4.2883,4.289,4.2826,4.2827,4.2828,4.2876,0,4.2511,4.2565,4.2576,4.2623,4.265,4.2654,4.2681,4.2703,4.2715,4.274,4.2754,4.2781,4.2771,4.2782,4.2803,4.2817,4.2844,4.2814,4.2851,4.2852,4.2847,4.2899,4.2904,4.2949,4.2882,4.2884,4.2884,0,4.2559,4.2586,4.2636,4.2667,4.2679,4.2702,4.2733,4.2757,4.2782,4.279,4.2811,4.2815,4.2848,4.2831,4.2878,4.2857,4.2873,4.2883,4.2885,4.2889,4.2871,4.2906,4.2963,4.297,4.2894,4.2893,4.2893,0,4.2581,4.2629,4.2666,4.268,4.2716,4.2733,4.2749,4.2774,4.2792,4.2819,4.2832,4.2861,4.2878,4.2901,4.2913,4.29,4.296,4.2944,4.2968,4.2968,4.2981,4.298,4.3042,4.2989,4.2989,4.2989,4.2989,0,4.262,4.2652,4.2677,4.27,4.2736,4.275,4.2785,4.2801,4.2824,4.2851,4.2856,4.2881,4.2896,4.2923,4.2933,4.2972,4.2979,4.2987,4.2989,4.2987,4.2986,4.2998,4.2996,4.2991,4.299,4.299,4.299,0,4.265,4.2668,4.271,4.2742,4.2751,4.2776,4.2804,4.2827,4.2842,4.2876,4.2885,4.2907,4.294,4.2956,4.2995,4.3003,4.3047,4.3047,4.3039,4.3041,4.3065,4.3063,4.3138,4.315,4.3088,4.3088,4.3089,0,4.2674,4.2699,4.2735,4.2755,4.2772,4.2802,4.2823,4.2839,4.286,4.2894,4.2914,4.2948,4.2976,4.3029,4.3049,4.3081,4.3082,4.3106,4.3086,4.3085,4.3085,4.3084,4.3088,4.311,4.311,4.3111,4.3111,0,4.2717,4.2726,4.2756,4.279,4.2815,4.2842,4.2869,4.2885,4.2905,4.2929,4.2964,4.2986,4.303,4.3065,4.3099,4.3115,4.3117,4.3118,4.3125,4.3124,4.3119,4.3125,4.3051,4.3115,4.3115,4.3115,4.3114,4.3114,4.2746,4.277,4.2801,4.2835,4.2858,4.2884,4.2909,4.2928,4.2958,4.2996,4.3004,4.3042,4.3071,4.3118,4.3136,4.3166,4.3161,4.3171,4.3174,4.3177,4.318,4.3114,4.3172,4.3172,4.3172,4.3172,4.3172,0,4.2791,4.2812,4.2843,4.2883,4.2911,4.2913,4.2944,4.2967,4.3001,4.3028,4.3058,4.3101,4.3135,4.3159,4.3195,4.3215,4.3217,4.3224,4.3223,4.3228,4.3181,4.3172,4.3222,4.3222,4.3222,4.3222,4.3222,4.3222,4.2817,4.2859,4.2873,4.2927,4.2948,4.2987,4.3005,4.303,4.3053,4.3101,4.3131,4.3147,4.3174,4.3213,4.3246,4.3252,4.3265,4.3273,4.3279,4.3236,4.323,4.3225,4.3217,4.3275,4.3275,4.3323,4.3323,4.3324]}]]